Regional Weather Roundup
Issued by NWS Grand Forks, ND

Home | Current Version | Previous Version | Text Only | Print | Product List | Glossary Off
Versions: 1 2 3 4 5 6 7 8 9 10 11 12 13 14 15 16 17 18 19 20 21 22 23 24 25 26 27 28 29 30 31 32 33 34 35 36 37 38 39 40 41 42 43 44 45 46 47 48 49 50

000
ASUS43 KFGF 251231
RWRFGF
PRAIRIE TO PINES  WEATHER ROUNDUP
NATIONAL WEATHER SERVICE EASTERN NORTH DAKOTA/GRAND FORKS ND
700 AM CDT THU MAY 25 2017

 **SATELLITE DATA USED TO AUGMENT SKY COVER AT AUTOMATED STATIONS**
 *****  WEATHER ACROSS EASTERN NORTH DAKOTA  *****

CITY           SKY/WX    TMP DP  RH WIND       PRES   REMARKS
GRAND FORKS    CLOUDY    52  44  74 SE18      29.53F
6HR MIN TEMP:  49; 6HR MAX TEMP:  53;

GRAND FRKS AFB FAIR      49  43  77 SE13      29.53F
DEVILS LAKE    LGT RAIN  51  45  79 SE17G24   29.47F
6HR MIN TEMP:  51; 6HR MAX TEMP:  53; 6HR PCP: TRACE;

FARGO          FAIR      53  44  71 SE16G29   29.52F
WAHPETON ARPT  FAIR      50  43  76 SE16      29.57F
$$

 ***** WEATHER ACROSS CENTRAL AND WESTERN NORTH DAKOTA  *****

CITY           SKY/WX    TMP DP  RH WIND       PRES   REMARKS
BISMARCK       FAIR      49  46  90 SE6       29.41F
6HR MIN TEMP:  48; 6HR MAX TEMP:  59; 6HR PCP:  0.01;

MINOT          FAIR      51  48  89 SE8       29.37F
6HR MIN TEMP:  51; 6HR MAX TEMP:  59; 6HR PCP:  0.07;

JAMESTOWN      PTSUNNY   51  44  77 SE15G24   29.45S
6HR MIN TEMP:  50; 6HR MAX TEMP:  51; 6HR PCP: TRACE;

MINOT AFB      FAIR      50  50  98 S9        29.36F
GARRISON         N/A     50  47  89 S12       29.38F
WILLISTON      FAIR      48  46  93 S8        29.36S
6HR MIN TEMP:  46; 6HR MAX TEMP:  54;

DICKINSON      FAIR      44  43  96 W9        29.41S
6HR MIN TEMP:  38; 6HR MAX TEMP:  51; 6HR PCP: TRACE;

HETTINGER      FAIR      43  41  93 NW7       29.44S FOG
6HR MIN TEMP:  40; 6HR MAX TEMP:  52;

$$

 *****  OTHER AIRPORT OBSERVATIONS IN OUR AREA  *****

CITY           SKY/WX    TMP DP  RH WIND       PRES   REMARKS
WALHALLA       NOT AVBL
GRAFTON AIRPOR FAIR      52  45  76 SE15G21   29.55S
VALLEY CITY AR PTSUNNY   50  50 100 SE15G23   29.51R
CANDO          NOT AVBL
CAVALIER APRT  FAIR      52  43  71 SE13G21   29.51F
GWINNER        SUNNY     50  46  87 MISG      29.50F
SHEYENNE NWR     N/A     50  46  87 SE14      29.95S
ROLLA          CLOUDY    48  46  93 S15G22    29.46R
 ***** THE ABOVE OBSERVATIONS ARE NON NWS ARE NOT QUALITY
       CONTROLLED AND MAY MIS-REPORT RAIN FOR SNOW...
$$

  *****  WEATHER ACROSS NORTHERN MINNESOTA  *****

CITY           SKY/WX    TMP DP  RH WIND       PRES   REMARKS
FLAG ISLAND    FAIR      50  43  76 SE9G18    29.66F
WARROAD        FAIR      50  45  81 SE12      29.66S
ROSEAU         FAIR      52  45  76 SE10      29.63F
HALLOCK        FAIR      52  45  76 SE18      29.55F
THF RVR FALLS  FAIR      48  43  82 SE18      29.60F
6HR MIN TEMP:  46; 6HR MAX TEMP:  51;

BAUDETTE       FAIR      45  41  86 SE9       29.69F
6HR MIN TEMP:  40; 6HR MAX TEMP:  47;

WASKISH        PTSUNNY   48  45  87 SE7       29.69S
CROOKSTON      FAIR      52  45  76 SE17      29.56F
STEPHEN NDAWN    N/A     52  43  71 SE15        N/A
GREENBUSH NDAW   N/A     48  43  81 SE13        N/A
$$
  *****  WEATHER ACROSS CENTRAL AND WEST MINNESOTA  *****

CITY           SKY/WX    TMP DP  RH WIND       PRES   REMARKS
FOSSTON        FAIR      48  45  87 SE10      29.61F
BEMIDJI        FAIR      47  44  88 SE9       29.67R
PARK RAPIDS    FAIR      50  43  77 SE9       29.66S
6HR MIN TEMP:  47; 6HR MAX TEMP:  54;

ELBOW LAKE     FAIR      52  46  79 E15G21    29.60F
6HR MIN TEMP:  48; 6HR MAX TEMP:  51;

WADENA         FAIR      46  45  93 SE9       29.65F
DETROIT LAKES  FAIR      50  45  81 SE15G23   29.62F
MOORHEAD       FAIR      52  45  76 SE18G25   29.53F
FERGUS FALLS   FAIR      54  45  71 SE17      29.58F
MORRIS MN      FAIR      50  46  87 SE17      29.60F
STAPLES        FAIR      48  45  87 SE6       29.69R
$$
  *****  WEATHER ELSEWHERE ACROSS MINNESOTA  *****

CITY           SKY/WX    TMP DP  RH WIND       PRES   REMARKS
DULUTH         PTSUNNY   45  42  89 E5        29.75R
6HR MIN TEMP:  40; 6HR MAX TEMP:  45;

INTRNTL FALLS  FAIR      45  39  79 SE7       29.73S
6HR MIN TEMP:  39; 6HR MAX TEMP:  45;

ELY            FAIR      45  41  87 E3        29.77R
CLOQUET        CLOUDY    43  39  87 E3        29.75S
WHEATON        FAIR      50  45  81 SE14G21   29.60R
BRAINERD       FAIR      49  46  90 SE8       29.70S
6HR MIN TEMP:  47; 6HR MAX TEMP:  52;

HIBBING        FAIR      41  40  96 CALM      29.74R
6HR MIN TEMP:  30; 6HR MAX TEMP:  41;

ALEXANDRIA     FAIR      48  44  86 SE12      29.66F
6HR MIN TEMP:  45; 6HR MAX TEMP:  48;

SAINT CLOUD    FAIR      49  48  97 E6        29.71R
6HR MIN TEMP:  46; 6HR MAX TEMP:  52;

MINNEAPOLIS    FAIR      52  48  86 SE6       29.72R
6HR MIN TEMP:  50; 6HR MAX TEMP:  55;

$$

  *****  WEATHER ACROSS SOUTH DAKOTA  *****

CITY           SKY/WX    TMP DP  RH WIND       PRES   REMARKS
SIOUX FALLS    PTSUNNY   53  47  79 S13       29.61R
6HR MIN TEMP:  50; 6HR MAX TEMP:  53;

BROOKINGS      PTSUNNY   49  45  86 SE14      29.60S
WATERTOWN      FAIR      49  45  86 SE20G29   29.54F
6HR MIN TEMP:  47; 6HR MAX TEMP:  50; 6HR PCP:  0.01;

HURON          FAIR      52  44  74 SE20G28   29.48F
6HR MIN TEMP:  51; 6HR MAX TEMP:  53; 6HR PCP: TRACE;

SISSETON         N/A     48  47  96 S13       29.55F
ABERDEEN       FAIR      52  43  71 SE23G31   29.45F
6HR MIN TEMP:  51; 6HR MAX TEMP:  53; 6HR PCP:  0.03;

MITCHELL       FAIR      53  44  71 SE22      29.51F
PIERRE         FAIR      52  44  74 SE14      29.34S
6HR MIN TEMP:  52; 6HR MAX TEMP:  57;

MOBRIDGE       FAIR      51  44  77 SE10      29.35R
RAPID CITY     FAIR      51  41  68 NW10      29.47R
6HR MIN TEMP:  45; 6HR MAX TEMP:  63;

$$

  *****  SOME WEATHER IN NEARBY STATES *****

CITY           SKY/WX    TMP DP  RH WIND       PRES   REMARKS
GLASGOW MT     LGT RAIN  50  40  68 W23G32    29.31S
6HR MIN TEMP:  45; 6HR MAX TEMP:  51; 6HR PCP: TRACE;

GREAT FALLS MT CLOUDY    44  39  82 W21G31    29.60F
6HR MIN TEMP:  40; 6HR MAX TEMP:  47; 6HR PCP:  0.39;

CHEYENNE WY    FAIR      51  41  68 NW8       29.62S
6HR MIN TEMP:  51; 6HR MAX TEMP:  57;

SCOTTSBLUFF NE FAIR      55  46  71 NW3       29.52F
6HR MIN TEMP:  53; 6HR MAX TEMP:  60;

OMAHA NE       FAIR      53  47  79 SE10      29.65S
6HR MIN TEMP:  49; 6HR MAX TEMP:  55;

DES MOINES IA  FAIR      52  47  83 SE5       29.70S
6HR MIN TEMP:  46; 6HR MAX TEMP:  53;

DAVENPORT IA   CLOUDY    53  50  89 NE9       29.67R
6HR MIN TEMP:  50; 6HR MAX TEMP:  54;

CHICAGO IL     CLOUDY    55  50  83 N13       29.58R
6HR MIN TEMP:  54; 6HR MAX TEMP:  56;

EAU CLAIRE WI  FAIR      53  50  89 CALM      29.72R
6HR MIN TEMP:  49; 6HR MAX TEMP:  53;

LA CROSSE WI   CLOUDY    51  49  92 CALM      29.71R FOG
6HR MIN TEMP:  44; 6HR MAX TEMP:  53;

$$

  *****  SOME NATIONAL WEATHER *****

CITY           SKY/WX    TMP DP  RH WIND       PRES   REMARKS
LA GUARDIA NY  RAIN      57  55  93 NE15      29.66F FOG
6HR MIN TEMP:  56; 6HR MAX TEMP:  59; 6HR PCP:  0.10;

RALEIGH NC     PTSUNNY   64  62  93 SW8       29.57R
6HR MIN TEMP:  60; 6HR MAX TEMP:  69; 6HR PCP:  0.70;

ATLANTA GA     PTSUNNY   58  54  86 W17       29.72R
6HR MIN TEMP:  56; 6HR MAX TEMP:  59; 6HR PCP:  0.02;

NEW ORLEANS LA FAIR      61  59  93 SW5       29.86R
6HR MIN TEMP:  57; 6HR MAX TEMP:  62;

OKLAHOMA CITY  FAIR      55  47  74 SE17      29.66F
6HR MIN TEMP:  52; 6HR MAX TEMP:  57;

ALBUQUERQUE NM MOCLDY    67  22  18 VRB3      29.83R
6HR MIN TEMP:  67; 6HR MAX TEMP:  75;

SALT LAKE CITY MOCLDY    58  38  47 NE6       29.68F
6HR MIN TEMP:  57; 6HR MAX TEMP:  67; 6HR PCP: TRACE;

LOS ANGELES CA CLOUDY    59  52  77 S3        29.85S
6HR MIN TEMP:  58; 6HR M


USA.gov is the U.S. government's official web portal to all federal, state and local government web resources and services.